Time,TemperatureF,DewpointF,PressureIn,WindDirection,WindDirectionDegrees,WindSpeedMPH,WindSpeedGustMPH,Humidity,HourlyPrecipIn,Conditions,Clouds,dailyrainin,SolarRadiationWatts/m^2,SoftwareType,DateUTC
2013-01-08 00:09:00,20.6,12.4,30.29,WSW,248,0.0,4.0,70,0.00,,CLR,0.00,0.00,VWS V14.01,2013-01-08 05:09:00,
2013-01-08 00:19:00,20.9,12.4,30.29,WSW,245,2.0,5.0,69,0.00,,CLR,0.00,0.00,VWS V14.01,2013-01-08 05:19:00,
2013-01-08 00:29:00,21.2,12.3,30.29,WSW,246,2.0,5.0,68,0.00,,CLR,0.00,0.00,VWS V14.01,2013-01-08 05:29:00,
2013-01-08 00:39:00,21.5,12.3,30.29,WSW,245,0.0,3.0,67,0.00,,CLR,0.00,0.00,VWS V14.01,2013-01-08 05:39:00,
2013-01-08 00:49:00,21.5,11.9,30.28,WSW,246,2.0,5.0,66,0.00,,CLR,0.00,0.00,VWS V14.01,2013-01-08 05:49:00,
2013-01-08 00:59:00,21.8,12.2,30.28,WSW,246,0.0,5.0,66,0.00,,CLR,0.00,0.00,VWS V14.01,2013-01-08 05:59:00,
2013-01-08 01:09:00,22.7,12.7,30.28,WSW,241,0.0,5.0,65,0.00,,CLR,0.00,0.00,VWS V14.01,2013-01-08 06:09:00,
2013-01-08 01:19:00,22.8,12.8,30.28,SSW,207,1.0,5.0,65,0.00,,CLR,0.00,0.00,VWS V14.01,2013-01-08 06:19:00,
2013-01-08 01:29:00,23.0,13.0,30.28,SSW,213,2.0,6.0,65,0.00,,CLR,0.00,0.00,VWS V14.01,2013-01-08 06:29:00,
2013-01-08 01:39:00,22.7,13.4,30.28,SSW,208,3.0,6.0,67,0.00,,CLR,0.00,0.00,VWS V14.01,2013-01-08 06:39:00,
2013-01-08 01:49:00,22.4,13.4,30.28,SW,225,3.0,8.0,68,0.00,,CLR,0.00,0.00,VWS V14.01,2013-01-08 06:49:00,
2013-01-08 01:59:00,22.1,13.5,30.27,WSW,238,3.0,9.0,69,0.00,,CLR,0.00,0.00,VWS V14.01,2013-01-08 06:59:00,
2013-01-08 02:09:00,21.9,13.6,30.28,SW,223,5.0,9.0,70,0.00,,CLR,0.00,0.00,VWS V14.01,2013-01-08 07:09:00,
2013-01-08 02:19:00,22.0,13.7,30.28,SW,214,5.0,9.0,70,0.00,,CLR,0.00,0.00,VWS V14.01,2013-01-08 07:19:00,
2013-01-08 02:29:00,22.1,14.1,30.27,SW,221,2.0,9.0,71,0.00,,CLR,0.00,0.00,VWS V14.01,2013-01-08 07:29:00,
2013-01-08 02:39:00,21.9,14.0,30.27,WSW,246,1.0,7.0,71,0.00,,CLR,0.00,0.00,VWS V14.01,2013-01-08 07:39:00,
2013-01-08 02:49:00,22.0,14.1,30.27,WSW,237,1.0,6.0,71,0.00,,CLR,0.00,0.00,VWS V14.01,2013-01-08 07:49:00,
2013-01-08 02:59:00,22.0,14.4,30.27,WSW,237,3.0,4.0,72,0.00,,CLR,0.00,0.00,VWS V14.01,2013-01-08 07:59:00,
2013-01-08 03:09:00,22.6,14.9,30.27,WSW,237,3.0,4.0,72,0.00,,CLR,0.00,0.00,VWS V14.01,2013-01-08 08:09:00,
2013-01-08 03:19:00,23.0,15.3,30.26,WSW,237,0.0,4.0,72,0.00,,CLR,0.00,0.00,VWS V14.01,2013-01-08 08:19:00,
2013-01-08 03:29:00,23.8,16.1,30.26,WSW,244,2.0,8.0,72,0.00,,CLR,0.00,0.00,VWS V14.01,2013-01-08 08:29:00,
2013-01-08 03:39:00,24.4,16.4,30.25,WSW,245,3.0,9.0,71,0.00,,CLR,0.00,0.00,VWS V14.01,2013-01-08 08:39:00,
2013-01-08 03:49:00,24.5,16.5,30.25,WSW,248,4.0,10.0,71,0.00,,CLR,0.00,0.00,VWS V14.01,2013-01-08 08:49:00,
2013-01-08 03:59:00,24.4,16.7,30.25,WSW,245,2.0,7.0,72,0.00,,CLR,0.00,0.00,VWS V14.01,2013-01-08 08:59:00,
2013-01-08 04:09:00,24.7,17.0,30.24,WSW,246,2.0,11.0,72,0.00,,CLR,0.00,0.00,VWS V14.01,2013-01-08 09:09:00,
2013-01-08 04:19:00,24.5,17.1,30.24,WSW,242,4.0,9.0,73,0.00,,CLR,0.00,0.00,VWS V14.01,2013-01-08 09:19:00,
2013-01-08 04:29:00,24.3,16.9,30.24,WSW,242,4.0,6.0,73,0.00,,CLR,0.00,0.00,VWS V14.01,2013-01-08 09:29:00,
2013-01-08 04:39:00,24.1,17.0,30.24,WSW,242,3.0,7.0,74,0.00,,CLR,0.00,0.00,VWS V14.01,2013-01-08 09:39:00,
2013-01-08 04:49:00,24.1,17.0,30.23,WSW,245,4.0,8.0,74,0.00,,CLR,0.00,0.00,VWS V14.01,2013-01-08 09:49:00,
2013-01-08 04:59:00,23.8,17.0,30.23,WSW,244,3.0,7.0,75,0.00,,CLR,0.00,0.00,VWS V14.01,2013-01-08 09:59:00,
2013-01-08 05:09:00,23.9,17.5,30.23,WSW,241,3.0,6.0,76,0.00,,CLR,0.00,0.00,VWS V14.01,2013-01-08 10:09:00,
2013-01-08 05:19:00,24.2,17.4,30.24,WSW,240,2.0,6.0,75,0.00,,CLR,0.00,0.00,VWS V14.01,2013-01-08 10:19:00,
2013-01-08 05:29:00,24.0,17.5,30.24,WSW,241,5.0,9.0,76,0.00,,CLR,0.00,0.00,VWS V14.01,2013-01-08 10:29:00,
2013-01-08 05:39:00,24.3,18.1,30.24,West,260,4.0,9.0,77,0.00,,CLR,0.00,0.00,VWS V14.01,2013-01-08 10:39:00,
2013-01-08 05:49:00,24.3,18.1,30.24,SW,219,5.0,10.0,77,0.00,,CLR,0.00,0.00,VWS V14.01,2013-01-08 10:49:00,
2013-01-08 05:59:00,23.9,18.0,30.24,SW,217,5.0,8.0,78,0.00,,CLR,0.00,0.00,VWS V14.01,2013-01-08 10:59:00,
2013-01-08 06:09:00,24.0,18.1,30.24,West,263,4.0,11.0,78,0.00,,CLR,0.00,0.00,VWS V14.01,2013-01-08 11:09:00,
2013-01-08 06:19:00,23.8,18.0,30.24,SW,233,4.0,8.0,78,0.00,,CLR,0.00,0.00,VWS V14.01,2013-01-08 11:19:00,
2013-01-08 06:29:00,23.6,18.1,30.24,SSW,209,3.0,6.0,79,0.00,,CLR,0.00,0.00,VWS V14.01,2013-01-08 11:29:00,
2013-01-08 06:39:00,23.5,18.0,30.25,WSW,247,5.0,9.0,79,0.00,,CLR,0.00,0.00,VWS V14.01,2013-01-08 11:39:00,
2013-01-08 06:49:00,23.3,18.1,30.25,WSW,244,2.0,9.0,80,0.00,,CLR,0.00,0.00,VWS V14.01,2013-01-08 11:49:00,
2013-01-08 06:59:00,23.2,18.2,30.25,WSW,248,6.0,9.0,81,0.00,,CLR,0.00,0.00,VWS V14.01,2013-01-08 11:59:00,
2013-01-08 07:09:00,23.4,18.4,30.25,WSW,242,4.0,9.0,81,0.00,,CLR,0.00,0.00,VWS V14.01,2013-01-08 12:09:00,
2013-01-08 07:19:00,23.7,18.5,30.25,SW,227,8.0,11.0,80,0.00,,CLR,0.00,7.00,VWS V14.01,2013-01-08 12:19:00,
2013-01-08 07:29:00,23.8,18.5,30.26,WSW,239,9.0,10.0,80,0.00,,CLR,0.00,11.00,VWS V14.01,2013-01-08 12:29:00,
2013-01-08 07:39:00,23.9,18.6,30.26,WSW,246,4.0,14.0,80,0.00,,CLR,0.00,19.00,VWS V14.01,2013-01-08 12:39:00,
2013-01-08 07:49:00,24.0,18.7,30.27,SW,221,5.0,12.0,80,0.00,,CLR,0.00,32.00,VWS V14.01,2013-01-08 12:49:00,
2013-01-08 07:59:00,24.3,18.7,30.26,SW,219,5.0,11.0,79,0.00,,CLR,0.00,46.00,VWS V14.01,2013-01-08 12:59:00,
2013-01-08 08:09:00,24.2,18.9,30.27,SW,215,5.0,13.0,80,0.00,,CLR,0.00,42.00,VWS V14.01,2013-01-08 13:09:00,
2013-01-08 08:19:00,24.0,18.7,30.27,SW,225,4.0,10.0,80,0.00,,CLR,0.00,88.00,VWS V14.01,2013-01-08 13:19:00,
2013-01-08 08:29:00,24.5,18.9,30.28,SW,231,6.0,11.0,79,0.00,,CLR,0.00,90.00,VWS V14.01,2013-01-08 13:29:00,
2013-01-08 08:39:00,25.3,19.4,30.27,WSW,246,7.0,12.0,78,0.00,,CLR,0.00,128.00,VWS V14.01,2013-01-08 13:39:00,
2013-01-08 08:49:00,26.0,19.8,30.27,SW,230,6.0,13.0,77,0.00,,CLR,0.00,153.00,VWS V14.01,2013-01-08 13:49:00,
2013-01-08 08:59:00,26.9,20.0,30.27,WSW,244,5.0,14.0,75,0.00,,CLR,0.00,232.00,VWS V14.01,2013-01-08 13:59:00,
2013-01-08 09:09:00,27.5,20.3,30.27,SW,217,13.0,13.0,74,0.00,,CLR,0.00,255.00,VWS V14.01,2013-01-08 14:09:00,
2013-01-08 09:19:00,28.0,20.2,30.27,SSW,207,6.0,13.0,72,0.00,,CLR,0.00,267.00,VWS V14.01,2013-01-08 14:19:00,
2013-01-08 09:29:00,28.4,20.2,30.28,SW,221,8.0,15.0,71,0.00,,CLR,0.00,218.00,VWS V14.01,2013-01-08 14:29:00,
2013-01-08 09:39:00,28.7,20.5,30.27,SW,221,3.0,12.0,71,0.00,,CLR,0.00,195.00,VWS V14.01,2013-01-08 14:39:00,
2013-01-08 09:49:00,29.4,20.5,30.27,SW,217,9.0,13.0,69,0.00,,CLR,0.00,294.00,VWS V14.01,2013-01-08 14:49:00,
2013-01-08 09:59:00,29.8,20.5,30.27,SSW,213,7.0,15.0,68,0.00,,CLR,0.00,341.00,VWS V14.01,2013-01-08 14:59:00,
2013-01-08 10:09:00,30.5,20.9,30.27,SW,217,10.0,16.0,67,0.00,,CLR,0.00,343.00,VWS V14.01,2013-01-08 15:09:00,
2013-01-08 10:19:00,30.7,20.7,30.27,SW,217,10.0,15.0,66,0.00,,CLR,0.00,323.00,VWS V14.01,2013-01-08 15:19:00,
2013-01-08 10:29:00,30.8,20.4,30.27,SW,234,6.0,19.0,65,0.00,,CLR,0.00,229.00,VWS V14.01,2013-01-08 15:29:00,
2013-01-08 10:39:00,31.3,20.9,30.27,SSW,199,9.0,17.0,65,0.00,,CLR,0.00,264.00,VWS V14.01,2013-01-08 15:39:00,
2013-01-08 10:49:00,31.4,20.6,30.27,SW,214,16.0,16.0,64,0.00,,CLR,0.00,258.00,VWS V14.01,2013-01-08 15:49:00,
2013-01-08 10:59:00,31.5,20.7,30.26,SW,215,7.0,17.0,64,0.00,,CLR,0.00,272.00,VWS V14.01,2013-01-08 15:59:00,
2013-01-08 11:09:00,32.1,20.9,30.26,WSW,238,3.0,11.0,63,0.00,,CLR,0.00,283.00,VWS V14.01,2013-01-08 16:09:00,
2013-01-08 11:19:00,32.5,21.3,30.26,SW,217,6.0,10.0,63,0.00,,CLR,0.00,290.00,VWS V14.01,2013-01-08 16:19:00,
2013-01-08 11:29:00,33.2,21.6,30.25,SW,218,5.0,11.0,62,0.00,,CLR,0.00,255.00,VWS V14.01,2013-01-08 16:29:00,
2013-01-08 11:39:00,33.5,21.5,30.25,SW,214,7.0,11.0,61,0.00,,CLR,0.00,255.00,VWS V14.01,2013-01-08 16:39:00,
2013-01-08 11:49:00,33.8,21.4,30.25,SW,215,8.0,13.0,60,0.00,,CLR,0.00,302.00,VWS V14.01,2013-01-08 16:49:00,
2013-01-08 11:59:00,34.1,21.7,30.25,SSW,209,6.0,13.0,60,0.00,,CLR,0.00,162.00,VWS V14.01,2013-01-08 16:59:00,
2013-01-08 12:09:00,33.9,21.5,30.24,SSW,208,6.0,12.0,60,0.00,,CLR,0.00,169.00,VWS V14.01,2013-01-08 17:09:00,
2013-01-08 12:19:00,34.2,21.8,30.24,SSW,211,4.0,8.0,60,0.00,,CLR,0.00,260.00,VWS V14.01,2013-01-08 17:19:00,
2013-01-08 12:29:00,34.4,21.6,30.24,SSW,203,6.0,10.0,59,0.00,,CLR,0.00,253.00,VWS V14.01,2013-01-08 17:29:00,
2013-01-08 12:39:00,34.9,21.6,30.24,SSW,203,5.0,9.0,58,0.00,,CLR,0.00,223.00,VWS V14.01,2013-01-08 17:39:00,
2013-01-08 12:49:00,35.4,22.1,30.24,SW,217,6.0,7.0,58,0.00,,CLR,0.00,236.00,VWS V14.01,2013-01-08 17:49:00,
2013-01-08 12:59:00,35.7,22.0,30.23,SSW,213,6.0,11.0,57,0.00,,CLR,0.00,234.00,VWS V14.01,2013-01-08 17:59:00,
2013-01-08 13:09:00,35.7,22.0,30.23,SSW,202,3.0,10.0,57,0.00,,CLR,0.00,214.00,VWS V14.01,2013-01-08 18:09:00,
2013-01-08 13:19:00,36.2,22.0,30.23,WSW,250,0.0,8.0,56,0.00,,CLR,0.00,216.00,VWS V14.01,2013-01-08 18:19:00,
2013-01-08 13:29:00,36.6,22.4,30.23,SW,217,6.0,10.0,56,0.00,,CLR,0.00,241.00,VWS V14.01,2013-01-08 18:29:00,
2013-01-08 13:39:00,36.7,22.5,30.23,SW,219,3.0,7.0,56,0.00,,CLR,0.00,181.00,VWS V14.01,2013-01-08 18:39:00,
2013-01-08 13:49:00,36.8,22.6,30.24,SW,219,3.0,7.0,56,0.00,,CLR,0.00,225.00,VWS V14.01,2013-01-08 18:49:00,
2013-01-08 13:59:00,37.1,22.4,30.24,SSW,209,4.0,7.0,55,0.00,,CLR,0.00,200.00,VWS V14.01,2013-01-08 18:59:00,
2013-01-08 14:09:00,37.2,23.0,30.24,SSW,209,1.0,8.0,56,0.00,,CLR,0.00,213.00,VWS V14.01,2013-01-08 19:09:00,
2013-01-08 14:19:00,37.9,23.2,30.24,SSW,209,3.0,10.0,55,0.00,,CLR,0.00,313.00,VWS V14.01,2013-01-08 19:19:00,
2013-01-08 14:29:00,38.7,22.6,30.24,SW,218,4.0,9.0,52,0.00,,CLR,0.00,290.00,VWS V14.01,2013-01-08 19:29:00,
2013-01-08 14:39:00,38.8,22.7,30.24,SW,215,4.0,10.0,52,0.00,,CLR,0.00,281.00,VWS V14.01,2013-01-08 19:39:00,
2013-01-08 14:49:00,39.2,22.6,30.25,SSW,206,6.0,9.0,51,0.00,,CLR,0.00,250.00,VWS V14.01,2013-01-08 19:49:00,
2013-01-08 14:59:00,39.3,22.7,30.25,WSW,247,0.0,11.0,51,0.00,,CLR,0.00,128.00,VWS V14.01,2013-01-08 19:59:00,
2013-01-08 15:09:00,39.2,22.6,30.25,SW,214,2.0,10.0,51,0.00,,CLR,0.00,137.00,VWS V14.01,2013-01-08 20:09:00,
2013-01-08 15:19:00,39.1,22.5,30.25,SW,227,4.0,11.0,51,0.00,,CLR,0.00,127.00,VWS V14.01,2013-01-08 20:19:00,
2013-01-08 15:29:00,39.4,22.8,30.25,SW,226,0.0,8.0,51,0.00,,CLR,0.00,88.00,VWS V14.01,2013-01-08 20:29:00,
2013-01-08 15:39:00,39.5,22.4,30.25,WSW,248,2.0,7.0,50,0.00,,CLR,0.00,30.00,VWS V14.01,2013-01-08 20:39:00,
2013-01-08 15:49:00,38.7,22.1,30.25,WSW,249,0.0,11.0,51,0.00,,CLR,0.00,30.00,VWS V14.01,2013-01-08 20:49:00,
2013-01-08 15:59:00,38.2,21.7,30.26,WSW,244,2.0,11.0,51,0.00,,CLR,0.00,19.00,VWS V14.01,2013-01-08 20:59:00,
2013-01-08 16:09:00,37.7,22.1,30.26,WSW,242,6.0,8.0,53,0.00,,CLR,0.00,18.00,VWS V14.01,2013-01-08 21:09:00,
2013-01-08 16:19:00,37.3,21.8,30.27,WSW,242,0.0,7.0,53,0.00,,CLR,0.00,9.00,VWS V14.01,2013-01-08 21:19:00,
2013-01-08 16:29:00,36.7,21.6,30.26,WSW,242,2.0,5.0,54,0.00,,CLR,0.00,5.00,VWS V14.01,2013-01-08 21:29:00,
2013-01-08 16:39:00,36.1,21.5,30.26,WSW,242,0.0,7.0,55,0.00,,CLR,0.00,0.00,VWS V14.01,2013-01-08 21:39:00,
2013-01-08 16:49:00,35.5,21.4,30.27,WSW,242,0.0,5.0,56,0.00,,CLR,0.00,0.00,VWS V14.01,2013-01-08 21:49:00,
2013-01-08 16:59:00,35.2,21.1,30.27,WSW,242,0.0,4.0,56,0.00,,CLR,0.00,0.00,VWS V14.01,2013-01-08 21:59:00,
2013-01-08 17:09:00,35.1,21.0,30.27,WSW,242,1.0,3.0,56,0.00,,CLR,0.00,0.00,VWS V14.01,2013-01-08 22:09:00,
2013-01-08 17:19:00,34.8,21.1,30.28,WSW,242,1.0,3.0,57,0.00,,CLR,0.00,0.00,VWS V14.01,2013-01-08 22:19:00,
2013-01-08 17:29:00,34.5,20.9,30.29,WSW,242,0.0,3.0,57,0.00,,CLR,0.00,0.00,VWS V14.01,2013-01-08 22:29:00,
2013-01-08 17:39:00,34.4,21.2,30.29,WSW,242,0.0,2.0,58,0.00,,CLR,0.00,0.00,VWS V14.01,2013-01-08 22:39:00,
2013-01-08 17:49:00,34.4,20.8,30.29,WSW,246,2.0,6.0,57,0.00,,CLR,0.00,0.00,VWS V14.01,2013-01-08 22:49:00,
2013-01-08 17:59:00,34.2,21.0,30.29,West,276,3.0,7.0,58,0.00,,CLR,0.00,0.00,VWS V14.01,2013-01-08 22:59:00,
2013-01-08 18:09:00,34.0,20.8,30.29,WSW,244,2.0,7.0,58,0.00,,CLR,0.00,0.00,VWS V14.01,2013-01-08 23:09:00,
2013-01-08 18:19:00,33.8,20.6,30.29,WSW,244,4.0,5.0,58,0.00,,CLR,0.00,0.00,VWS V14.01,2013-01-08 23:19:00,
2013-01-08 18:29:00,33.8,20.6,30.30,WSW,245,2.0,6.0,58,0.00,,CLR,0.00,0.00,VWS V14.01,2013-01-08 23:29:00,
2013-01-08 18:39:00,33.5,20.3,30.30,WSW,245,0.0,5.0,58,0.00,,CLR,0.00,0.00,VWS V14.01,2013-01-08 23:39:00,
2013-01-08 18:49:00,33.0,19.9,30.31,WSW,245,0.0,2.0,58,0.00,,CLR,0.00,0.00,VWS V14.01,2013-01-08 23:49:00,
2013-01-08 18:59:00,32.6,19.5,30.31,WSW,245,0.0,3.0,58,0.00,,CLR,0.00,0.00,VWS V14.01,2013-01-08 23:59:00,
2013-01-08 19:09:00,33.3,19.3,30.32,West,272,2.0,7.0,56,0.00,,CLR,0.00,0.00,VWS V14.01,2013-01-09 00:09:00,
2013-01-08 19:19:00,33.4,19.4,30.32,West,267,0.0,5.0,56,0.00,,CLR,0.00,0.00,VWS V14.01,2013-01-09 00:19:00,
2013-01-08 19:29:00,32.9,19.4,30.32,West,268,0.0,3.0,57,0.00,,CLR,0.00,0.00,VWS V14.01,2013-01-09 00:29:00,
2013-01-08 19:39:00,32.0,18.9,30.33,West,268,0.0,0.0,58,0.00,,CLR,0.00,0.00,VWS V14.01,2013-01-09 00:39:00,
2013-01-08 19:49:00,32.3,18.8,30.33,West,268,0.0,2.0,57,0.00,,CLR,0.00,0.00,VWS V14.01,2013-01-09 00:49:00,
2013-01-08 19:59:00,32.7,19.2,30.33,WSW,252,0.0,3.0,57,0.00,,CLR,0.00,0.00,VWS V14.01,2013-01-09 00:59:00,
2013-01-08 20:09:00,32.5,19.0,30.33,WSW,252,0.0,1.0,57,0.00,,CLR,0.00,0.00,VWS V14.01,2013-01-09 01:09:00,
2013-01-08 20:19:00,31.9,18.8,30.33,WSW,252,0.0,0.0,58,0.00,,CLR,0.00,0.00,VWS V14.01,2013-01-09 01:19:00,
2013-01-08 20:29:00,31.9,18.8,30.33,WSW,252,0.0,2.0,58,0.00,,CLR,0.00,0.00,VWS V14.01,2013-01-09 01:29:00,
2013-01-08 20:39:00,31.3,18.6,30.33,WSW,252,0.0,0.0,59,0.00,,CLR,0.00,0.00,VWS V14.01,2013-01-09 01:39:00,
2013-01-08 20:49:00,31.0,18.8,30.33,WSW,252,2.0,2.0,60,0.00,,CLR,0.00,0.00,VWS V14.01,2013-01-09 01:49:00,
2013-01-08 20:59:00,31.5,18.8,30.32,WSW,252,0.0,2.0,59,0.00,,CLR,0.00,0.00,VWS V14.01,2013-01-09 01:59:00,
2013-01-08 21:09:00,31.8,18.7,30.32,WSW,252,0.0,3.0,58,0.00,,CLR,0.00,0.00,VWS V14.01,2013-01-09 02:09:00,
2013-01-08 21:19:00,31.7,19.0,30.32,WSW,252,3.0,5.0,59,0.00,,CLR,0.00,0.00,VWS V14.01,2013-01-09 02:19:00,
2013-01-08 21:29:00,31.3,19.0,30.32,WSW,248,5.0,8.0,60,0.00,,CLR,0.00,0.00,VWS V14.01,2013-01-09 02:29:00,
2013-01-08 21:39:00,31.4,19.1,30.32,WSW,245,4.0,10.0,60,0.00,,CLR,0.00,0.00,VWS V14.01,2013-01-09 02:39:00,
2013-01-08 21:49:00,31.2,19.0,30.32,WSW,248,3.0,8.0,60,0.00,,CLR,0.00,0.00,VWS V14.01,2013-01-09 02:49:00,
2013-01-08 21:59:00,31.4,19.5,30.32,WSW,246,0.0,5.0,61,0.00,,CLR,0.00,0.00,VWS V14.01,2013-01-09 02:59:00,
2013-01-08 22:09:00,31.4,19.5,30.32,WSW,246,3.0,5.0,61,0.00,,CLR,0.00,0.00,VWS V14.01,2013-01-09 03:09:00,
2013-01-08 22:19:00,31.4,19.5,30.33,WSW,245,1.0,3.0,61,0.00,,CLR,0.00,0.00,VWS V14.01,2013-01-09 03:19:00,
2013-01-08 22:29:00,31.2,19.3,30.33,WSW,246,0.0,4.0,61,0.00,,CLR,0.00,0.00,VWS V14.01,2013-01-09 03:29:00,
2013-01-08 22:39:00,30.8,19.0,30.33,WSW,246,0.0,0.0,61,0.00,,CLR,0.00,0.00,VWS V14.01,2013-01-09 03:39:00,
2013-01-08 22:49:00,30.6,19.5,30.33,WSW,245,0.0,0.0,63,0.00,,CLR,0.00,0.00,VWS V14.01,2013-01-09 03:49:00,
2013-01-08 22:59:00,30.9,19.8,30.33,WSW,245,0.0,1.0,63,0.00,,CLR,0.00,0.00,VWS V14.01,2013-01-09 03:59:00,
2013-01-08 23:09:00,31.2,19.3,30.34,WSW,246,0.0,2.0,61,0.00,,CLR,0.00,0.00,VWS V14.01,2013-01-09 04:09:00,
2013-01-08 23:19:00,31.1,19.6,30.33,WSW,246,0.0,2.0,62,0.00,,CLR,0.00,0.00,VWS V14.01,2013-01-09 04:19:00,
2013-01-08 23:29:00,31.0,19.9,30.33,WSW,245,0.0,1.0,63,0.00,,CLR,0.00,0.00,VWS V14.01,2013-01-09 04:29:00,
2013-01-08 23:39:00,30.8,19.3,30.34,WSW,246,0.0,3.0,62,0.00,,CLR,0.00,0.00,VWS V14.01,2013-01-09 04:39:00,
2013-01-08 23:49:00,31.1,19.6,30.34,WSW,246,0.0,2.0,62,0.00,,CLR,0.00,0.00,VWS V14.01,2013-01-09 04:49:00,
2013-01-08 23:59:00,31.6,20.1,30.34,WSW,246,0.0,3.0,62,0.00,,CLR,0.00,0.00,VWS V14.01,2013-01-09 04:59:00,